Location: Newark
(39.6867°N, 100.6772°W)
Time: 15:34:13
(UTC+00:00)

Vanguard 1 Rocket - Pass Details

Date: 26 October 2019
Orbit: 651 x 4226 km, 34.3° (Epoch: 20 November)

Event Time Altitude Azimuth Distance (km) Brightness Sun altitude
Rises 23:46:31 0° 283° (WNW) 7,836 13.4 -0.2°
Reaches altitude 10° 23:53:22 10° 271° (W) 7,160 13.6 -1.5°
Maximum altitude 00:10:30 24° 229° (SW) 6,255 12.6 -4.7°
Drops below altitude 10° 00:27:00 10° 185° (S) 6,744 12.0 -7.8°
Sets 00:33:24 0° 172° (S) 7,288 12.0 -9.1°
